Total_Precipitation_Accumulation
0.01 0.04 0.17 0.29 0.39 0.74 1.04 0.73 0.29 0.11 0.07 0.11 0.12 0.08 0.10 0.10 0.15 0.27 0.13 0.10 0.03 0.01 0.00 0.02 0.01 0.01 0.03 0.03 0.04 0.06 0.06 0.07 0.06 0.06 0.06 0.05 0.04 0.02 0.02 0.02 0.02 0.02 0.02 0.02 0.02 0.03 0.03 0.03 0.03
0.01 0.06 0.20 0.27 0.57 1.13 1.00 0.92 0.21 0.09 0.08 0.16 0.13 0.09 0.10 0.12 0.09 0.09 0.08 0.09 0.03 0.02 0.01 0.01 0.01 0.02 0.02 0.03 0.04 0.06 0.06 0.06 0.07 0.10 0.10 0.08 0.04 0.03 0.02 0.02 0.02 0.02 0.02 0.02 0.02 0.02 0.02 0.02 0.02
0.02 0.09 0.20 0.23 0.49 0.81 0.54 0.44 0.14 0.08 0.12 0.17 0.16 0.12 0.12 0.21 0.16 0.13 0.08 0.04 0.02 0.02 0.02 0.01 0.02 0.02 0.02 0.03 0.04 0.07 0.07 0.07 0.09 0.14 0.14 0.11 0.05 0.06 0.06 0.04 0.03 0.03 0.03 0.02 0.02 0.02 0.02 0.01 0.01
0.02 0.07 0.13 0.19 0.32 0.44 0.37 0.21 0.09 0.07 0.09 0.12 0.15 0.13 0.18 0.14 0.10 0.14 0.13 0.06 0.03 0.04 0.02 0.02 0.02 0.02 0.02 0.03 0.04 0.09 0.11 0.09 0.10 0.13 0.13 0.11 0.09 0.11 0.10 0.05 0.04 0.04 0.04 0.04 0.02 0.02 0.02 0.01 0.01
0.02 0.06 0.09 0.12 0.20 0.31 0.31 0.20 0.12 0.07 0.07 0.11 0.13 0.17 0.21 0.12 0.12 0.18 0.19 0.09 0.08 0.06 0.03 0.02 0.03 0.03 0.03 0.03 0.03 0.06 0.09 0.10 0.12 0.13 0.10 0.08 0.06 0.06 0.06 0.04 0.04 0.04 0.04 0.04 0.03 0.03 0.03 0.02 0.02
0.03 0.04 0.07 0.09 0.13 0.21 0.21 0.14 0.11 0.10 0.13 0.13 0.15 0.29 0.31 0.23 0.18 0.19 0.22 0.15 0.10 0.07 0.04 0.04 0.04 0.04 0.04 0.03 0.03 0.04 0.05 0.06 0.06 0.07 0.06 0.05 0.04 0.06 0.07 0.06 0.05 0.05 0.05 0.05 0.05 0.05 0.05 0.05 0.04
0.02 0.02 0.03 0.05 0.07 0.15 0.16 0.12 0.11 0.09 0.10 0.14 0.19 0.37 0.46 0.47 0.31 0.22 0.23 0.20 0.12 0.06 0.04 0.06 0.05 0.05 0.05 0.05 0.04 0.04 0.05 0.06 0.06 0.06 0.06 0.06 0.06 0.07 0.09 0.11 0.11 0.10 0.11 0.11 0.11 0.09 0.07 0.07 0.07
0.01 0.01 0.01 0.02 0.03 0.08 0.10 0.10 0.09 0.09 0.09 0.12 0.18 0.30 0.47 0.43 0.25 0.24 0.31 0.27 0.16 0.09 0.06 0.07 0.07 0.07 0.07 0.06 0.06 0.06 0.07 0.07 0.07 0.08 0.08 0.08 0.08 0.09 0.13 0.14 0.15 0.18 0.22 0.23 0.18 0.16 0.14 0.13 0.10
0.01 0.00 0.00 0.00 0.01 0.02 0.03 0.06 0.06 0.07 0.10 0.16 0.21 0.34 0.46 0.32 0.26 0.28 0.53 0.43 0.24 0.14 0.10 0.08 0.08 0.09 0.10 0.09 0.09 0.10 0.10 0.10 0.10 0.13 0.14 0.14 0.16 0.23 0.30 0.32 0.39 0.39 0.41 0.43 0.39 0.36 0.35 0.32 0.20
0.00 0.00 0.00 0.00 0.00 0.01 0.02 0.05 0.05 0.06 0.14 0.40 0.54 0.56 0.55 0.42 0.41 0.43 0.58 0.44 0.28 0.21 0.15 0.14 0.14 0.14 0.15 0.16 0.21 0.23 0.23 0.26 0.23 0.36 0.43 0.44 0.54 0.51 0.35 0.45 0.68 0.80 0.89 0.86 0.84 0.84 0.70 0.58 0.48
0.00 0.00 0.00 0.00 0.00 0.00 0.01 0.03 0.06 0.09 0.31 0.64 0.71 0.62 0.53 0.51 0.48 0.51 0.64 0.60 0.37 0.28 0.24 0.26 0.25 0.25 0.24 0.31 0.31 0.35 0.46 0.57 0.54 0.58 0.65 0.71 0.73 0.60 0.48 0.57 0.79 1.03 1.15 1.06 1.33 1.40 1.03 1.07 1.19
0.00 0.00 0.00 0.00 0.00 0.00 0.00 0.01 0.05 0.16 0.35 0.42 0.49 0.57 0.57 0.53 0.67 0.68 0.62 0.72 0.53 0.37 0.35 0.51 0.44 0.44 0.51 0.58 0.43 0.44 0.52 0.61 0.67 0.80 0.84 0.90 0.98 0.90 0.87 0.90 0.96 1.13 1.29 1.51 1.61 1.72 1.60 1.58 1.56
0.00 0.00 0.00 0.00 0.00 0.00 0.01 0.03 0.11 0.24 0.31 0.33 0.49 0.65 0.68 0.61 0.69 0.73 0.70 0.92 0.76 0.65 0.61 0.64 0.68 0.72 0.79 0.70 0.69 0.65 0.73 0.78 0.82 0.89 1.01 1.04 1.23 1.30 1.32 1.22 1.19 1.19 1.34 1.51 1.65 1.74 2.03 2.17 1.89
0.00 0.00 0.00 0.00 0.00 0.01 0.04 0.07 0.16 0.28 0.38 0.45 0.54 0.69 0.78 0.79 0.82 0.82 0.92 1.09 0.93 0.87 0.95 0.89 0.91 1.03 1.12 1.15 1.19 1.18 1.04 1.03 1.02 1.00 1.06 1.13 1.29 1.47 1.55 1.47 1.44 1.33 1.36 1.52 1.72 1.89 2.28 2.29 2.15
0.00 0.01 0.02 0.01 0.01 0.03 0.06 0.18 0.27 0.39 0.47 0.53 0.60 0.69 0.83 1.07 1.10 1.10 1.12 1.13 1.05 1.14 1.20 1.24 1.35 1.53 1.62 1.60 1.64 1.60 1.45 1.36 1.29 1.29 1.34 1.33 1.37 1.49 1.52 1.38 1.33 1.38 1.53 1.68 1.76 1.97 2.26 1.96 1.93
0.01 0.06 0.06 0.05 0.03 0.03 0.09 0.33 0.38 0.43 0.46 0.56 0.68 0.69 0.77 0.95 1.13 1.16 1.21 1.19 1.23 1.38 1.51 1.73 1.87 1.91 1.91 1.98 2.04 1.95 1.82 1.70 1.58 1.52 1.56 1.46 1.40 1.44 1.56 1.40 1.31 1.66 1.79 1.85 2.00 2.15 2.15 2.04 1.98
0.02 0.04 0.04 0.06 0.04 0.03 0.08 0.29 0.36 0.47 0.65 0.75 0.90 0.87 0.75 0.85 1.11 1.21 1.27 1.41 1.54 1.78 2.05 2.35 2.43 2.41 2.31 2.31 2.28 2.20 2.03 1.83 1.67 1.57 1.54 1.41 1.42 1.51 1.72 1.64 1.71 1.99 2.06 2.03 1.97 2.22 2.21 2.06 2.02
0.02 0.03 0.05 0.07 0.05 0.04 0.15 0.36 0.39 0.50 0.75 0.75 0.92 0.94 0.90 0.92 1.18 1.40 1.45 1.52 1.70 2.04 2.37 2.45 2.56 2.84 2.79 2.66 2.48 2.23 1.88 1.64 1.61 1.58 1.45 1.46 1.54 1.67 1.92 1.77 1.78 1.97 2.06 2.00 1.96 1.93 2.01 1.84 1.84
0.02 0.04 0.07 0.08 0.06 0.07 0.19 0.42 0.58 0.69 0.89 0.87 0.79 0.84 0.85 0.88 0.96 1.12 1.35 1.56 1.75 1.98 2.27 2.55 2.78 2.92 2.81 2.58 2.34 2.13 1.95 1.86 1.67 1.57 1.52 1.49 1.49 1.57 1.82 1.72 1.82 1.88 1.83 1.80 1.87 1.87 1.73 1.47 1.70
0.03 0.06 0.08 0.11 0.09 0.11 0.27 0.47 0.70 0.70 0.76 0.79 0.68 0.66 0.71 0.90 0.95 1.17 1.31 1.40 1.55 1.82 2.20 2.46 2.75 2.84 2.63 2.36 2.18 2.08 2.04 1.77 1.55 1.55 1.54 1.56 1.63 1.62 1.70 1.73 1.73 1.76 1.75 1.64 1.61 1.70 1.55 1.31 1.49
0.05 0.06 0.08 0.08 0.10 0.17 0.28 0.63 0.85 0.68 0.65 0.68 0.67 0.67 0.75 1.00 1.30 1.43 1.31 1.31 1.41 1.59 1.82 2.01 2.11 2.07 1.96 1.93 1.98 1.98 1.98 1.75 1.70 1.78 1.82 1.80 1.81 1.78 1.77 1.71 1.60 1.47 1.42 1.34 1.37 1.47 1.47 1.32 1.33
0.07 0.05 0.05 0.05 0.10 0.26 0.29 0.67 1.04 0.84 0.65 0.73 0.78 0.71 0.96 1.19 1.12 1.15 1.22 1.29 1.38 1.49 1.67 1.83 1.82 1.67 1.55 1.59 1.77 1.85 1.81 1.77 1.92 2.15 2.08 1.86 1.70 1.57 1.41 1.28 1.26 1.22 1.21 1.11 1.07 1.17 1.22 1.15 1.10
0.05 0.04 0.05 0.05 0.09 0.21 0.27 0.47 0.90 0.90 0.90 0.81 0.76 0.84 1.10 1.07 0.94 0.92 1.03 1.12 1.13 1.25 1.38 1.53 1.61 1.53 1.48 1.49 1.55 1.66 1.70 1.70 1.70 1.70 1.66 1.55 1.38 1.20 1.03 0.94 0.94 0.93 0.93 0.88 0.85 0.87 0.89 0.93 0.94
0.04 0.05 0.10 0.13 0.20 0.39 0.30 0.37 0.73 0.90 0.75 0.63 0.69 0.74 0.87 0.88 0.81 0.83 0.85 0.89 0.94 1.03 1.04 1.02 1.13 1.20 1.24 1.27 1.31 1.33 1.31 1.28 1.22 1.14 1.12 1.05 0.96 0.80 0.68 0.65 0.68 0.73 0.79 0.77 0.75 0.77 0.77 0.83 0.94
0.04 0.08 0.31 0.56 0.69 0.68 0.35 0.44 0.84 0.73 0.55 0.56 0.70 0.68 0.61 0.59 0.59 0.68 0.69 0.71 0.76 0.81 0.79 0.79 0.87 0.98 0.98 0.93 0.96 0.99 0.96 0.91 0.85 0.85 0.82 0.79 0.73 0.63 0.56 0.54 0.57 0.64 0.70 0.68 0.64 0.65 0.74 0.87 0.96
0.06 0.08 0.24 0.42 0.47 0.52 0.43 0.73 1.13 0.76 0.58 0.62 0.63 0.56 0.49 0.48 0.47 0.56 0.63 0.67 0.66 0.63 0.65 0.67 0.71 0.76 0.73 0.69 0.70 0.70 0.73 0.72 0.68 0.68 0.60 0.57 0.58 0.59 0.57 0.52 0.53 0.55 0.59 0.59 0.62 0.62 0.69 0.82 0.89
0.06 0.05 0.09 0.20 0.23 0.32 0.50 0.76 0.82 0.53 0.47 0.53 0.52 0.47 0.49 0.49 0.46 0.45 0.47 0.51 0.49 0.46 0.47 0.52 0.61 0.65 0.67 0.66 0.64 0.59 0.59 0.57 0.52 0.49 0.47 0.45 0.47 0.50 0.57 0.56 0.57 0.59 0.63 0.66 0.72 0.77 0.85 0.99 1.06
0.07 0.07 0.10 0.15 0.21 0.30 0.41 0.66 0.72 0.54 0.44 0.33 0.27 0.21 0.22 0.23 0.24 0.22 0.23 0.24 0.24 0.28 0.34 0.42 0.45 0.46 0.49 0.51 0.54 0.53 0.49 0.44 0.38 0.35 0.36 0.36 0.37 0.41 0.49 0.57 0.58 0.60 0.61 0.65 0.76 0.94 1.10 1.20 1.24
0.09 0.07 0.07 0.07 0.11 0.21 0.40 0.52 0.36 0.33 0.30 0.26 0.20 0.14 0.13 0.11 0.13 0.17 0.18 0.21 0.23 0.27 0.34 0.42 0.44 0.44 0.46 0.45 0.45 0.45 0.43 0.40 0.35 0.30 0.30 0.30 0.33 0.37 0.40 0.47 0.51 0.53 0.57 0.61 0.70 0.83 1.02 1.13 1.16
0.09 0.07 0.06 0.09 0.09 0.12 0.22 0.31 0.17 0.19 0.19 0.18 0.17 0.15 0.15 0.16 0.15 0.17 0.17 0.23 0.28 0.28 0.29 0.35 0.39 0.44 0.53 0.61 0.69 0.70 0.62 0.53 0.44 0.35 0.30 0.30 0.32 0.35 0.37 0.37 0.40 0.41 0.46 0.52 0.63 0.75 0.86 0.95 0.98